CW1084 Lusby MD US current weather conditions

sailwx.info

Wind from 314 at 1 knots gusting 9

Air temperature 8.9° C
Dewpoint -3.0° C

Last reported at 2019-Dec-05 19:04 UTC.
Time now 2019-Dec-05 19:49 UTC

Location: N 38°23' W 076°24'.
View on Google Maps.

See reports from other nearby stations

  
Tides and Currents Weather Stations Pressure Air Temp Water Temp Dewpoint Dewpoint Depression Visibility Wind Speed Wind Dir Waves Ship Positions
date/time (UTC)wind fromknots sea level pressurealtimeterstation pressurevisibilityair tempwater tempwave heightnotes
2019-Dec-05 19:04 314 1 gusting 9 8.9
2019-Dec-05 18:59 350 1 gusting 8 8.9
2019-Dec-05 18:53 237 1 gusting 8 8.9
2019-Dec-05 18:47 272 1 gusting 9 8.9
2019-Dec-05 18:43 246 2 gusting 13 8.9
2019-Dec-05 18:38 279 3 gusting 13 8.3
2019-Dec-05 18:33 283 3 gusting 11 8.3
2019-Dec-05 18:27 288 2 gusting 11 8.3
2019-Dec-05 18:22 264 3 gusting 10 8.3
2019-Dec-05 18:17 322 3 gusting 12 7.8
2019-Dec-05 18:11 312 3 gusting 12 7.8
2019-Dec-05 17:59 242 2 gusting 10 8.3
2019-Dec-05 17:50 028 3 gusting 11 7.8
2019-Dec-05 17:43 302 4 gusting 14 8.3
2019-Dec-05 17:27 288 3 gusting 12 8.3
2019-Dec-05 17:23 010 2 gusting 9 8.3
2019-Dec-05 17:13 067 2 gusting 10 7.8
2019-Dec-05 17:09 294 2 gusting 11 7.8
2019-Dec-05 16:54 309 3 gusting 13 7.8
2019-Dec-05 16:42 286 3 gusting 13 7.2
2019-Dec-05 16:39 294 3 gusting 13 7.2
2019-Dec-05 16:33 265 3 gusting 13 7.2
2019-Dec-05 16:11 009 2 gusting 9 7.2
2019-Dec-05 15:59 304 1 gusting 8 7.2
2019-Dec-05 15:31 306 0 gusting 6 7.2
2019-Dec-05 15:27 246 1 gusting 6 6.7
2019-Dec-05 15:23 281 1 gusting 8 6.7
2019-Dec-05 15:15 298 3 gusting 10 6.1
2019-Dec-05 15:07 268 2 gusting 9 6.1
2019-Dec-05 15:01 284 1 gusting 7 6.1
2019-Dec-05 14:56 278 1 gusting 7 6.1
2019-Dec-05 14:49 249 1 gusting 7 5.6
2019-Dec-05 14:39 286 1 gusting 6 5.6
2019-Dec-05 14:34 293 1 gusting 6 5.6
2019-Dec-05 14:29 272 1 gusting 6 5.0
2019-Dec-05 14:19 300 1 gusting 7 5.0
2019-Dec-05 14:03 289 2 gusting 0 4.4
2019-Dec-05 13:58 317 2 gusting 9 4.4
2019-Dec-05 13:52 284 2 gusting 8 4.4
2019-Dec-05 13:49 291 2 gusting 8 4.4
2019-Dec-05 13:43 273 1 gusting 6 3.9
2019-Dec-05 13:37 292 1 gusting 6 3.9
2019-Dec-05 13:31 261 0 gusting 6 3.9
2019-Dec-05 13:21 298 2 gusting 7 3.9
2019-Dec-05 13:16 277 2 gusting 7 4.4
2019-Dec-05 13:12 300 2 gusting 8 4.4
2019-Dec-05 13:06 272 2 gusting 8 4.4
2019-Dec-05 13:02 261 1 gusting 7 4.4
2019-Dec-05 12:55 273 1 gusting 6 4.4
2019-Dec-05 12:51 240 1 gusting 6 4.4
2019-Dec-05 12:40 305 2 gusting 6 4.4
2019-Dec-05 12:35 286 2 gusting 7 4.4
2019-Dec-05 12:25 271 2 gusting 10 4.4
2019-Dec-05 12:20 281 0 gusting 6 4.4
2019-Dec-05 12:16 300 1 gusting 6 4.4
2019-Dec-05 12:11 246 1 gusting 6 4.4
2019-Dec-05 12:06 247 0 gusting 5 4.4
2019-Dec-05 11:59 261 1 gusting 7 4.4
2019-Dec-05 11:50 274 1 gusting 7 4.4
2019-Dec-05 11:44 278 1 gusting 6 4.4
2019-Dec-05 11:39 300 1 gusting 5 4.4
2019-Dec-05 11:31 306 2 gusting 8 4.4
2019-Dec-05 11:27 271 2 gusting 8 4.4
2019-Dec-05 11:22 310 2 gusting 8 4.4
2019-Dec-05 11:18 276 1 gusting 6 4.4
2019-Dec-05 08:53 296 2 gusting 13 5.0
2019-Dec-05 08:48 339 2 gusting 9 5.0
2019-Dec-05 08:38 238 3 gusting 11 5.0
2019-Dec-05 08:33 330 3 gusting 11 5.0
2019-Dec-05 08:27 302 2 gusting 11 5.0
2019-Dec-05 08:22 279 2 gusting 13 5.0
2019-Dec-05 08:17 304 3 gusting 13 5.6
2019-Dec-05 08:14 250 2 gusting 7 5.6
2019-Dec-05 08:07 244 2 gusting 9 5.6
2019-Dec-05 08:02 275 1 gusting 8 5.6
2019-Dec-05 07:57 294 1 gusting 6 5.6
2019-Dec-05 07:52 290 1 gusting 6 5.6
2019-Dec-05 07:47 286 1 gusting 5 5.6
2019-Dec-05 07:42 261 2 gusting 6 5.6
2019-Dec-05 07:38 267 1 gusting 6 5.6
2019-Dec-05 07:27 271 1 gusting 6 5.6
2019-Dec-05 07:22 288 1 gusting 6 5.6
2019-Dec-05 07:12 279 1 gusting 6 5.6
2019-Dec-05 07:06 267 1 gusting 6 5.6
2019-Dec-05 07:02 275 1 gusting 5 5.6
2019-Dec-05 06:57 272 1 gusting 7 5.6
2019-Dec-05 06:54 263 2 gusting 7 5.6
2019-Dec-05 06:42 244 0 gusting 5 5.6
2019-Dec-05 06:37 279 1 gusting 6 5.6
2019-Dec-05 06:28 246 1 gusting 6 5.6
2019-Dec-05 06:22 273 1 gusting 6 5.6
2019-Dec-05 06:16 289 1 gusting 6 5.6
2019-Dec-05 06:11 270 1 gusting 6 5.6
2019-Dec-05 06:07 269 0 gusting 6 5.0
2019-Dec-05 06:01 304 0 gusting 6 5.0
2019-Dec-05 05:56 228 0 gusting 7 5.0
2019-Dec-05 05:51 325 0 gusting 7 5.0
2019-Dec-05 05:46 273 0 gusting 5 4.4
2019-Dec-05 05:40 275 4.4
2019-Dec-05 05:36 274 4.4
2019-Dec-05 05:30 246 4.4
2019-Dec-05 05:25 246 3.9
2019-Dec-05 05:20 245 3.9
2019-Dec-05 05:17 245 3.3
2019-Dec-05 05:15 245 3.3
2019-Dec-05 04:59 244 2.8
2019-Dec-05 04:54 238 2.2
2019-Dec-05 04:49 238 2.2
2019-Dec-05 04:44 238 2.2
2019-Dec-05 04:38 238 2.2
2019-Dec-05 04:34 238 2.2
2019-Dec-05 04:23 238 2.2
2019-Dec-05 04:17 238 2.2
2019-Dec-05 04:12 238 2.2
2019-Dec-05 04:07 238 2.2
2019-Dec-05 04:02 238 2.2
2019-Dec-05 03:57 238 2.8
2019-Dec-05 03:52 238 2.8
2019-Dec-05 03:46 238 2.8
2019-Dec-05 03:44 238 3.3
2019-Dec-05 03:37 238 2.8
2019-Dec-05 03:32 238 2.8
2019-Dec-05 03:27 238 2.8
2019-Dec-05 03:21 238 2.8
2019-Dec-05 03:17 257 1 gusting 6 6.7
2019-Dec-05 03:10 238 2.8
2019-Dec-05 03:05 238 2.8
2019-Dec-05 03:00 238 2.8
2019-Dec-05 02:54 238 2.8
2019-Dec-05 02:46 238 3.3
2019-Dec-05 02:34 238 4.4
2019-Dec-05 02:29 238 3.3
2019-Dec-05 02:24 238 3.3
2019-Dec-05 02:19 238 3.3
2019-Dec-05 02:13 238 3.9
2019-Dec-05 02:09 238 3.9
2019-Dec-05 01:57 238 4.4
2019-Dec-05 01:52 238 5.0
2019-Dec-05 01:48 238 5.0
2019-Dec-05 01:22 238 1 gusting 5 6.1
2019-Dec-05 01:17 239 1 gusting 6 6.1
2019-Dec-05 01:02 232 1 gusting 6 6.1
2019-Dec-05 00:58 269 0 gusting 5 6.1
2019-Dec-05 00:52 248 0 gusting 5 6.1
2019-Dec-05 00:47 250 0 gusting 4 6.1
2019-Dec-05 00:26 252 0 gusting 4 6.1
2019-Dec-05 00:21 252 0 gusting 4 6.7
2019-Dec-05 00:17 252 0 gusting 4 6.7
2019-Dec-05 00:11 251 0 gusting 4 6.7
2019-Dec-05 00:05 254 6.7
2019-Dec-05 00:00 303 6.7
2019-Dec-04 23:55 303 6.7
2019-Dec-04 23:50 303 6.7
2019-Dec-04 23:45 303 6.7
2019-Dec-04 23:40 303 7.2
2019-Dec-04 23:36 304 7.2
2019-Dec-04 23:31 304 0 gusting 5 7.2
2019-Dec-04 23:25 304 0 gusting 5 7.2
2019-Dec-04 23:19 296 1 gusting 5 7.2
2019-Dec-04 23:15 253 2 gusting 7 7.2
2019-Dec-04 23:09 239 1 gusting 7 6.7
2019-Dec-04 23:05 284 0 gusting 3 7.2
2019-Dec-04 23:00 273 7.2
2019-Dec-04 22:55 277 7.2
2019-Dec-04 22:49 281 7.2
2019-Dec-04 22:44 281 7.8
2019-Dec-04 22:39 281 7.8
2019-Dec-04 22:34 281 7.8
2019-Dec-04 22:27 281 7.8
2019-Dec-04 22:21 281 7.8
2019-Dec-04 22:18 150 7.8
2019-Dec-04 22:06 150 7.8
2019-Dec-04 22:01 153 7.8
2019-Dec-04 21:57 154 8.3
2019-Dec-04 21:46 154 8.3
2019-Dec-04 21:41 153 8.3
2019-Dec-04 21:39 153 8.3
2019-Dec-04 21:30 153 8.3
2019-Dec-04 21:25 153 8.3
2019-Dec-04 21:21 153 8.9
2019-Dec-04 21:15 153 0 gusting 6 8.9
2019-Dec-04 21:10 175 8.9
2019-Dec-04 21:04 175 8.9
2019-Dec-04 20:59 300 0 gusting 6 8.9
2019-Dec-04 20:54 244 8.9
2019-Dec-04 20:49 185 8.9
2019-Dec-04 20:44 188 8.9
2019-Dec-04 20:38 103 8.9
2019-Dec-04 20:33 249 8.9
2019-Dec-04 20:28 153 0 gusting 6 8.9
2019-Dec-04 20:24 290 1 gusting 6 8.9
2019-Dec-04 20:18 263 0 gusting 6 8.9
2019-Dec-04 20:13 252 0 gusting 6 8.9
2019-Dec-04 20:09 239 0 gusting 6 8.9
2019-Dec-04 20:04 313 0 gusting 6 8.9
2019-Dec-04 19:57 263 1 gusting 6 8.9
2019-Dec-04 19:52 262 1 gusting 7 8.9
2019-Dec-04 19:47 244 1 gusting 7 8.9
2019-Dec-04 19:42 271 2 gusting 10 8.9
2019-Dec-04 19:37 276 1 gusting 10 8.9
2019-Dec-04 19:32 265 1 gusting 6 8.9
2019-Dec-04 19:27 263 2 gusting 7 8.9
2019-Dec-04 19:23 257 2 gusting 7 9.4
2019-Dec-04 19:17 277 1 gusting 6 9.4
2019-Dec-04 19:12 216 1 gusting 5 9.4
2019-Dec-04 19:07 202 1 gusting 7 9.4
2019-Dec-04 19:02 229 2 gusting 7 10.0
2019-Dec-04 18:57 278 1 gusting 6 10.0
2019-Dec-04 18:52 163 0 gusting 5 10.0
2019-Dec-04 18:42 272 0 gusting 6 9.4
2019-Dec-04 18:38 312 0 gusting 6 9.4
2019-Dec-04 18:32 159 0 gusting 6 9.4
2019-Dec-04 18:27 155 0 gusting 5 8.9
2019-Dec-04 18:23 154 0 gusting 5 8.9
2019-Dec-04 18:13 211 0 gusting 5 8.3
2019-Dec-04 18:09 291 0 gusting 6 8.3
2019-Dec-04 18:01 315 1 gusting 6 8.3
2019-Dec-04 17:55 316 1 gusting 6 8.3
2019-Dec-04 17:49 224 0 gusting 6 8.3
2019-Dec-04 17:43 219 0 gusting 6 7.8
2019-Dec-04 17:39 208 0 gusting 4 7.8
2019-Dec-04 17:32 184 7.2
2019-Dec-04 17:29 220 0 gusting 5 7.2
2019-Dec-04 17:25 271 0 gusting 5 7.2
2019-Dec-04 17:19 146 0 gusting 7 7.2
2019-Dec-04 17:02 154 0 gusting 6 7.2
2019-Dec-04 16:50 279 0 gusting 6 7.2
2019-Dec-04 16:47 175 0 gusting 6 6.7
2019-Dec-04 16:34 292 0 gusting 6 6.7
2019-Dec-04 16:20 299 0 gusting 6 6.7
2019-Dec-04 16:17 194 0 gusting 4 6.1
2019-Dec-04 16:12 250 0 gusting 5 6.1
2019-Dec-04 15:44 267 5.6
2019-Dec-04 15:39 169 5.6
2019-Dec-04 15:26 257 0 gusting 6 5.6
2019-Dec-04 15:21 168 5.6
2019-Dec-04 15:09 257 5.6
2019-Dec-04 14:54 166 0 gusting 3 5.0
2019-Dec-04 14:44 240 5.0
2019-Dec-04 14:39 219 5.0
2019-Dec-04 14:34 219 5.0
2019-Dec-04 14:26 093 2.2
2019-Dec-04 14:23 219 5.0
2019-Dec-04 14:18 094 3.3
2019-Dec-04 14:14 093 3.9
2019-Dec-04 14:09 217 4.4
2019-Dec-04 14:03 179 0 gusting 4 4.4
2019-Dec-04 14:00 094 3.9
2019-Dec-04 13:49 093 3.9
2019-Dec-04 13:41 094 3.3
2019-Dec-04 13:36 093 2.8
2019-Dec-04 13:31 094 2.8
2019-Dec-04 13:27 094 2.8
2019-Dec-04 13:23 094 2.8
2019-Dec-04 13:19 094 2.8
2019-Dec-04 13:10 093 2.2
2019-Dec-04 13:07 093 2.2
2019-Dec-04 12:55 094 2.2
2019-Dec-04 12:50 094 2.2
2019-Dec-04 12:42 094 2.8
2019-Dec-04 12:28 094 2.8
2019-Dec-04 12:23 094 2.8
2019-Dec-04 12:10 094 3.3
2019-Dec-04 12:03 094 3.3
2019-Dec-04 11:59 094 3.3
2019-Dec-04 11:44 094 3.9
2019-Dec-04 11:38 094 3.9
2019-Dec-04 11:30 094 3.9
2019-Dec-04 11:29 094 3.9
2019-Dec-04 11:21 094 3.9
2019-Dec-04 11:16 094 3.9
2019-Dec-04 11:14 094 3.9
2019-Dec-04 11:09 094 3.9
2019-Dec-04 11:00 094 3.9
2019-Dec-04 10:54 094 3.9
2019-Dec-04 10:43 094 3.9
2019-Dec-04 10:38 094 3.9
2019-Dec-04 10:32 094 3.9
2019-Dec-04 10:28 094 3.9
2019-Dec-04 10:17 097 3.9
2019-Dec-04 10:12 097 3.9
2019-Dec-04 10:07 066 3.9
2019-Dec-04 10:01 064 3.9
2019-Dec-04 09:57 064 3.9
2019-Dec-04 09:51 063 3.9
2019-Dec-04 09:50 065 3.9
2019-Dec-04 09:41 065 0 gusting 3 3.9
2019-Dec-04 09:36 104 3.9
2019-Dec-04 09:31 113 3.9
2019-Dec-04 09:26 126 3.9
2019-Dec-04 09:21 078 3.9
2019-Dec-04 09:15 057 3.9
2019-Dec-04 09:11 057 3.9
2019-Dec-04 09:05 025 3.9
2019-Dec-04 09:00 026 3.3
2019-Dec-04 08:54 057 3.3
2019-Dec-04 08:49 067 3.3
2019-Dec-04 08:43 046 3.3
2019-Dec-04 08:34 033 3.9
2019-Dec-04 08:23 069 3.9
2019-Dec-04 08:18 069 3.9
2019-Dec-04 08:13 069 3.9
2019-Dec-04 08:08 069 3.9
2019-Dec-04 08:03 069 3.9
2019-Dec-04 07:57 069 3.9
2019-Dec-04 07:53 069 3.9
2019-Dec-04 07:48 069 3.9
2019-Dec-04 07:42 069 3.9
2019-Dec-04 07:37 069 3.9
2019-Dec-04 07:31 069 3.9
2019-Dec-04 07:21 069 3.9
2019-Dec-04 07:16 069 3.9
2019-Dec-04 07:05 067 3.9
2019-Dec-04 07:00 067 3.9
2019-Dec-04 06:59 069 3.9
2019-Dec-04 06:50 061 3.9
2019-Dec-04 06:45 061 3.9
2019-Dec-04 06:40 061 3.9
2019-Dec-04 06:35 063 3.9
2019-Dec-04 06:30 031 3.9
2019-Dec-04 06:24 015 3.9
2019-Dec-04 06:19 015 3.9
2019-Dec-04 06:15 005 2.8
2019-Dec-04 06:05 355 3.9
2019-Dec-04 06:01 005 2.8
2019-Dec-04 05:59 338 3.9
2019-Dec-04 05:54 005 3.3
2019-Dec-04 05:48 042 3.3
2019-Dec-04 05:43 041 3.3
2019-Dec-04 05:39 040 3.3
2019-Dec-04 05:33 041 3.3
2019-Dec-04 05:29 005 3.9
2019-Dec-04 05:17 041 3.3
2019-Dec-04 05:13 040 3.3
2019-Dec-04 05:09 040 2.8
2019-Dec-04 04:57 005 2.8
2019-Dec-04 04:51 005 2.8
2019-Dec-04 04:42 305 5.0
2019-Dec-04 04:36 005 2.8
2019-Dec-04 04:31 005 2.8
2019-Dec-04 04:28 062 4.4
2019-Dec-04 04:15 005 2.8
2019-Dec-04 04:13 005 2.8
2019-Dec-04 04:09 005 2.8
2019-Dec-04 04:05 005 2.8
2019-Dec-04 03:55 005 2.8
2019-Dec-04 03:52 005 2.8
2019-Dec-04 03:49 005 3.3
2019-Dec-04 03:45 005 3.3
2019-Dec-04 03:28 005 3.3
2019-Dec-04 03:15 202 5.0
2019-Dec-04 03:10 005 3.3
2019-Dec-04 02:58 005 3.3
2019-Dec-04 02:53 005 3.3
2019-Dec-04 02:48 005 3.3
2019-Dec-04 02:43 005 3.3
2019-Dec-04 02:34 005 3.9
2019-Dec-04 02:25 198 5.6
2019-Dec-04 02:22 005 3.9
2019-Dec-04 02:16 005 3.9
2019-Dec-04 02:11 005 3.9
2019-Dec-04 02:06 005 4.4
2019-Dec-04 02:01 005 4.4
2019-Dec-04 01:56 005 4.4
2019-Dec-04 01:51 005 4.4
2019-Dec-04 01:40 005 4.4
2019-Dec-04 01:36 005 4.4
2019-Dec-04 01:30 005 5.0
2019-Dec-04 01:25 005 5.0
2019-Dec-04 01:20 005 5.0
2019-Dec-04 01:10 009 5.0
2019-Dec-04 01:05 267 5.0
2019-Dec-04 00:59 269 5.0
2019-Dec-04 00:54 269 5.0
2019-Dec-04 00:49 267 5.0
2019-Dec-04 00:43 305 5.0
2019-Dec-04 00:38 306 5.0
2019-Dec-04 00:28 305 5.0
2019-Dec-04 00:20 305 0 gusting 4 5.0
2019-Dec-04 00:16 036 5.0
2019-Dec-04 00:11 4.4
2019-Dec-04 00:07 4.4
2019-Dec-04 00:00 148 4.4
2019-Dec-03 23:56 148 5.0
2019-Dec-03 23:52 148 5.0
2019-Dec-03 23:40 200 5.0
2019-Dec-03 23:36 200 5.0
2019-Dec-03 23:32 200 5.0
2019-Dec-03 23:27 200 5.0
2019-Dec-03 23:21 198 5.6
2019-Dec-03 23:12 198 5.6
2019-Dec-03 23:09 198 5.6
2019-Dec-03 23:03 197 6.1
2019-Dec-03 22:59 278 6.1
2019-Dec-03 22:52 286 6.1
2019-Dec-03 22:49 268 6.1
2019-Dec-03 22:44 267 0 gusting 4 6.7
2019-Dec-03 22:39 259 1 gusting 4 6.7
2019-Dec-03 22:31 275 2 gusting 8 6.7
2019-Dec-03 22:28 302 1 gusting 8 6.7
2019-Dec-03 22:22 302 1 gusting 6 6.7
2019-Dec-03 22:13 292 1 gusting 11 7.2
2019-Dec-03 22:08 266 1 gusting 11 7.2
2019-Dec-03 22:03 295 0 gusting 6 7.2
2019-Dec-03 21:58 263 0 gusting 1 7.2
2019-Dec-03 21:54 264 1 gusting 6 7.8
2019-Dec-03 21:49 264 1 gusting 9 7.8
2019-Dec-03 21:44 316 2 gusting 9 7.8
2019-Dec-03 21:39 316 1 7.8
2019-Dec-03 21:33 310 0 gusting 6 7.8
2019-Dec-03 21:28 024 2 gusting 9 7.8
2019-Dec-03 21:24 287 2 gusting 9 8.3
2019-Dec-03 21:18 272 1 gusting 3 8.3
2019-Dec-03 21:12 277 1 gusting 6 8.3
2019-Dec-03 20:55 286 1 gusting 2 8.3
2019-Dec-03 20:49 024 1 gusting 7 8.9
2019-Dec-03 20:40 283 1 gusting 8 8.9
2019-Dec-03 20:25 268 1 gusting 9 8.9
2019-Dec-03 20:20 281 0 gusting 6 8.9
2019-Dec-03 20:15 061 1 8.9
2019-Dec-03 20:12 290 1 gusting 7 8.9
2019-Dec-03 20:07 270 1 gusting 6 8.9
2019-Dec-03 20:02 299 1 gusting 6 8.9
2019-Dec-03 19:47 312 2 gusting 8 9.4
2019-Dec-03 19:43 276 1 gusting 8 9.4
2019-Dec-03 19:38 238 1 9.4
2019-Dec-03 19:33 303 2 gusting 10 9.4
2019-Dec-03 19:29 317 1 gusting 8 9.4
2019-Dec-03 19:18 244 2 gusting 1 9.4
2019-Dec-03 19:13 226 2 gusting 11 9.4
2019-Dec-03 19:09 295 1 gusting 11 9.4
2019-Dec-03 19:04 292 2 gusting 6 9.4